When you browse on this site, cookies collect data to enhance your experience and personalize the content and advertising you see.
Visit our Privacy Policy to learn more. By continuing to use the site, you agree to this use of cookies and data.
  • In Czech Republic
  • List of Countries
  • For 7 days
  • Water Temperature
  • Satellite Maps
  • Weather Map
  • Weather Widgets
  • user-avatar
    Login

    Hourly Weather Badalona

    Today, 11 December, Tuesday

    Time Temperature Precipitation Wind Pressure Humidity
    00:00 +10°C° 0 mm 1 mps 765 mmHg 79%
    01:00 +9°C° 0 mm 2 mps 765 mmHg 79%
    02:00 +9°C° 0 mm 2 mps 764 mmHg 80%
    03:00 +9°C° 0 mm 2 mps 764 mmHg 80%
    04:00 +8°C° 0 mm 2 mps 764 mmHg 81%
    05:00 +8°C° 0 mm 2 mps 764 mmHg 81%
    06:00 +8°C° 0 mm 2 mps 764 mmHg 82%
    07:00 +10°C° 0 mm 1 mps 763 mmHg 78%
    08:00 +11°C° 0 mm 1 mps 763 mmHg 75%
    09:00 +12°C° 0 mm 1 mps 763 mmHg 71%
    10:00 +13°C° 0 mm 1 mps 763 mmHg 67%
    11:00 +14°C° 0 mm 1 mps 763 mmHg 63%
    12:00 +16°C° 0 mm 1 mps 762 mmHg 59%
    13:00 +16°C° 0 mm 1 mps 762 mmHg 59%
    14:00 +16°C° 0 mm 1 mps 761 mmHg 59%
    15:00 +16°C° 0 mm 2 mps 761 mmHg 59%
    16:00 +14°C° 0 mm 2 mps 761 mmHg 65%
    17:00 +13°C° 0 mm 2 mps 761 mmHg 71%
    18:00 +12°C° 0 mm 2 mps 761 mmHg 77%
    19:00 +10°C° 0 mm 2 mps 761 mmHg 76%
    20:00 +10°C° 0 mm 2 mps 761 mmHg 75%
    21:00 +10°C° 0 mm 2 mps 761 mmHg 74%
    22:00 +10°C° 0 mm 2 mps 761 mmHg 72%
    23:00 +10°C° 0 mm 2 mps 760 mmHg 70%

    Tomorrow, 12 December, Wednesday

    Time Temperature Precipitation Wind Pressure Humidity
    00:00 +9°C° 0 mm 2 mps 760 mmHg 69%
    01:00 +9°C° 0 mm 2 mps 760 mmHg 68%
    02:00 +9°C° 0 mm 2 mps 760 mmHg 67%
    03:00 +9°C° 0 mm 2 mps 760 mmHg 66%
    04:00 +9°C° 0 mm 2 mps 760 mmHg 67%
    05:00 +9°C° 0 mm 2 mps 760 mmHg 67%
    06:00 +9°C° 0 mm 2 mps 760 mmHg 68%
    07:00 +10°C° 0 mm 2 mps 760 mmHg 66%
    08:00 +12°C° 0 mm 2 mps 760 mmHg 63%
    09:00 +12°C° 0 mm 2 mps 760 mmHg 61%
    10:00 +14°C° 0 mm 2 mps 760 mmHg 58%
    11:00 +15°C° 0 mm 2 mps 760 mmHg 55%
    12:00 +16°C° 0 mm 1 mps 759 mmHg 53%
    13:00 +16°C° 0 mm 2 mps 759 mmHg 55%
    14:00 +16°C° 0 mm 2 mps 759 mmHg 57%
    15:00 +15°C° 0 mm 2 mps 758 mmHg 59%
    16:00 +14°C° 0 mm 2 mps 758 mmHg 67%
    17:00 +13°C° 0 mm 2 mps 758 mmHg 75%
    18:00 +12°C° 0 mm 2 mps 758 mmHg 83%
    19:00 +12°C° 0 mm 2 mps 758 mmHg 85%
    20:00 +10°C° 0 mm 2 mps 758 mmHg 87%
    21:00 +11°C° 0 mm 1 mps 758 mmHg 89%
    22:00 +11°C° 0.1 mm 1 mps 758 mmHg 90%
    23:00 +10°C° 0.1 mm 2 mps 757 mmHg 91%

    Day after tomorrow, 13 December, Thursday

    Time Temperature Precipitation Wind Pressure Humidity
    00:00 +10°C° 0.1 mm 2 mps 757 mmHg 92%
    01:00 +10°C° 0 mm 2 mps 756 mmHg 92%
    02:00 +10°C° 0 mm 2 mps 756 mmHg 92%
    03:00 +10°C° 0 mm 2 mps 755 mmHg 92%
    04:00 +10°C° 0.1 mm 2 mps 754 mmHg 91%
    05:00 +10°C° 0.1 mm 2 mps 754 mmHg 90%
    06:00 +10°C° 0.1 mm 2 mps 753 mmHg 89%
    07:00 +10°C° 0.1 mm 2 mps 753 mmHg 87%
    08:00 +12°C° 0.1 mm 1 mps 752 mmHg 84%
    09:00 +12°C° 0.1 mm 1 mps 752 mmHg 82%
    10:00 +13°C° 0 mm 1 mps 751 mmHg 80%
    11:00 +14°C° 0 mm 1 mps 751 mmHg 77%
    12:00 +14°C° 0 mm 1 mps 750 mmHg 75%
    13:00 +14°C° 0.2 mm 1 mps 749 mmHg 76%
    14:00 +14°C° 0.2 mm 2 mps 749 mmHg 77%
    15:00 +14°C° 0.2 mm 2 mps 749 mmHg 78%
    16:00 +13°C° 0.8 mm 3 mps 748 mmHg 80%
    17:00 +12°C° 0.8 mm 4 mps 748 mmHg 82%
    18:00 +12°C° 0.8 mm 5 mps 748 mmHg 84%
    19:00 +11°C° 1.1 mm 6 mps 749 mmHg 83%
    20:00 +11°C° 1.1 mm 7 mps 749 mmHg 82%
    21:00 +10°C° 1.1 mm 8 mps 749 mmHg 81%
    22:00 +10°C° 1 mm 8 mps 750 mmHg 79%
    23:00 +10°C° 1 mm 8 mps 750 mmHg 77%

    14 December, Friday

    Time Temperature Precipitation Wind Pressure Humidity
    00:00 +10°C° 1 mm 8 mps 751 mmHg 75%
    01:00 +10°C° 0.7 mm 8 mps 751 mmHg 75%
    02:00 +10°C° 0.7 mm 9 mps 752 mmHg 76%
    03:00 +10°C° 0.7 mm 9 mps 752 mmHg 76%
    04:00 +8°C° 0.3 mm 9 mps 753 mmHg 76%
    05:00 +9°C° 0.3 mm 8 mps 754 mmHg 77%
    06:00 +9°C° 0.3 mm 8 mps 754 mmHg 77%
    07:00 +9°C° 0 mm 7 mps 755 mmHg 75%
    08:00 +10°C° 0 mm 6 mps 756 mmHg 73%
    09:00 +10°C° 0 mm 6 mps 757 mmHg 71%
    10:00 +12°C° 0 mm 5 mps 758 mmHg 68%
    11:00 +13°C° 0 mm 4 mps 758 mmHg 64%
    12:00 +14°C° 0 mm 3 mps 758 mmHg 61%
    13:00 +14°C° 0 mm 3 mps 759 mmHg 62%
    14:00 +14°C° 0 mm 3 mps 759 mmHg 63%
    15:00 +14°C° 0 mm 3 mps 759 mmHg 64%
    16:00 +13°C° 0 mm 3 mps 760 mmHg 70%
    17:00 +12°C° 0 mm 3 mps 761 mmHg 75%
    18:00 +11°C° 0 mm 3 mps 761 mmHg 81%
    19:00 +12°C° 0 mm 2 mps 762 mmHg 83%
    20:00 +10°C° 0 mm 2 mps 762 mmHg 84%
    21:00 +10°C° 0 mm 2 mps 763 mmHg 86%
    22:00 +10°C° 0 mm 2 mps 763 mmHg 86%
    23:00 +10°C° 0 mm 2 mps 763 mmHg 86%

    15 December, Saturday

    Time Temperature Precipitation Wind Pressure Humidity
    00:00 +10°C° 0 mm 2 mps 763 mmHg 86%
    01:00 +10°C° 0 mm 2 mps 763 mmHg 85%
    02:00 +9°C° 0 mm 2 mps 764 mmHg 85%
    03:00 +9°C° 0 mm 2 mps 764 mmHg 85%
    04:00 +9°C° 0 mm 2 mps 764 mmHg 83%
    05:00 +8°C° 0 mm 2 mps 764 mmHg 82%
    06:00 +8°C° 0 mm 2 mps 764 mmHg 80%
    07:00 +9°C° 0 mm 2 mps 765 mmHg 75%
    08:00 +10°C° 0 mm 2 mps 765 mmHg 70%
    09:00 +10°C° 0 mm 2 mps 765 mmHg 65%
    10:00 +13°C° 0 mm 2 mps 765 mmHg 59%
    11:00 +14°C° 0 mm 1 mps 765 mmHg 54%
    12:00 +16°C° 0 mm 1 mps 765 mmHg 48%
    13:00 +16°C° 0 mm 2 mps 765 mmHg 50%
    14:00 +16°C° 0 mm 2 mps 764 mmHg 53%
    15:00 +15°C° 0 mm 2 mps 764 mmHg 55%
    16:00 +14°C° 0 mm 2 mps 765 mmHg 60%
    17:00 +12°C° 0 mm 3 mps 765 mmHg 65%
    18:00 +11°C° 0 mm 3 mps 765 mmHg 70%
    19:00 +11°C° 0 mm 3 mps 765 mmHg 70%
    20:00 +10°C° 0 mm 3 mps 765 mmHg 70%
    21:00 +10°C° 0 mm 3 mps 765 mmHg 69%
    22:00 +10°C° 0 mm 3 mps 765 mmHg 68%
    23:00 +10°C° 0 mm 3 mps 765 mmHg 67%

    16 December, Sunday

    Time Temperature Precipitation Wind Pressure Humidity
    00:00 +10°C° 0 mm 3 mps 765 mmHg 66%
    01:00 +10°C° 0 mm 3 mps 765 mmHg 65%
    02:00 +10°C° 0 mm 3 mps 764 mmHg 64%
    03:00 +10°C° 0 mm 3 mps 764 mmHg 62%
    04:00 +10°C° 0 mm 3 mps 764 mmHg 61%
    05:00 +10°C° 0 mm 3 mps 764 mmHg 60%
    06:00 +10°C° 0 mm 2 mps 764 mmHg 59%
    07:00 +11°C° 0 mm 3 mps 764 mmHg 57%
    08:00 +12°C° 0 mm 3 mps 764 mmHg 55%
    09:00 +13°C° 0 mm 3 mps 764 mmHg 53%
    10:00 +14°C° 0 mm 3 mps 764 mmHg 51%
    11:00 +17°C° 0 mm 4 mps 763 mmHg 49%
    12:00 +19°C° 0 mm 4 mps 763 mmHg 48%
    13:00 +19°C° 0 mm 4 mps 762 mmHg 50%
    14:00 +19°C° 0 mm 5 mps 762 mmHg 53%
    15:00 +19°C° 0 mm 5 mps 762 mmHg 56%
    16:00 +17°C° 0 mm 5 mps 762 mmHg 63%
    17:00 +15°C° 0 mm 4 mps 763 mmHg 70%
    18:00 +13°C° 0 mm 4 mps 763 mmHg 76%
    19:00 +13°C° 0 mm 4 mps 763 mmHg 77%
    20:00 +13°C° 0 mm 3 mps 764 mmHg 77%
    21:00 +12°C° 0 mm 3 mps 764 mmHg 78%
    22:00 +12°C° 0 mm 3 mps 764 mmHg 78%
    23:00 +13°C° 0 mm 2 mps 764 mmHg 79%
    Show more